Winston-Salem, NC

5:51 PM EST on November 24, 2017 (GMT -0500)
Smith Reynolds

Weather History for KINT - April, 2013

Change the Weather History Date:

Thursday, April 18, 2013

  Actual Average Record
Temperature  
Mean Temperature 71 °F -  
Max Temperature 79 °F 68 °F 90 °F (1967)
Min Temperature 64 °F 48 °F 28 °F (1983)
Cooling Degree Days 6    
Growing Degree Days 21 (Base 50)    
Moisture  
Dew Point 57 °F    
Average Humidity 65    
Maximum Humidity 84    
Minimum Humidity 42    
Precipitation  
Precipitation 0.00 in - - ()
Sea Level Pressure  
Sea Level Pressure 30.10 in    
Wind  
Wind Speed 5 mph (South)    
Max Wind Speed 10 mph    
Max Gust Speed 20 mph    
Visibility 10 miles    
Events      
Averages and records for this station are not official NWS values.
T = Trace of Precipitation, MM = Missing Value Source: NWS Daily Summary

Daily Weather History Graph

Daily Weather History Graph

Search for Another Location

Airport or City:

Trip Planner

Search our weather history database for the weather conditions in past years. The results will help you decide how hot, cold, wet, or windy it might be!

Date:

Astronomy

Apr. 18, 2013 Rise Set
Actual Time 6:43 AM EDT 7:57 PM EDT
Civil Twilight 6:16 AM EDT 8:24 PM EDT
Nautical Twilight 5:45 AM EDT 8:56 PM EDT
Astronomical Twilight 5:11 AM EDT 9:29 PM EDT
Moon 12:55 PM EDT (4/18) 2:08 AM EDT (4/18)
Length of Visible Light 14h 07m
Length of Day
13h 14m
First Quarter, 51% of the Moon is Illuminated
Apr 18
First Quarter
Apr 25
Full
May 2
Last Quarter
May 9
New
May 18
First Quarter

Hourly Weather History & Observations

Time (EDT) Temp. Dew Point Humidity Pressure Visibility Wind Dir Wind Speed Gust Speed Precip Events Conditions
12:54 AM 68.0 °F 60.1 °F 76% 30.12 in 10.0 mi Calm Calm - N/A   Mostly Cloudy
1:54 AM 66.9 °F 61.0 °F 81% 30.10 in 10.0 mi SSE 4.6 mph - N/A   Overcast
2:54 AM 66.9 °F 62.1 °F 84% 30.10 in 10.0 mi Variable 4.6 mph - N/A   Overcast
3:54 AM 66.0 °F 61.0 °F 84% 30.10 in 10.0 mi South 4.6 mph - N/A   Scattered Clouds
4:54 AM 64.9 °F 60.1 °F 84% 30.11 in 10.0 mi South 3.5 mph - N/A   Mostly Cloudy
5:54 AM 64.9 °F 59.0 °F 81% 30.12 in 10.0 mi South 5.8 mph - N/A   Overcast
6:54 AM 64.9 °F 59.0 °F 81% 30.14 in 10.0 mi South 3.5 mph - N/A   Overcast
7:54 AM 64.9 °F 57.9 °F 78% 30.16 in 10.0 mi South 5.8 mph - N/A   Overcast
8:54 AM 66.9 °F 57.9 °F 73% 30.17 in 10.0 mi South 4.6 mph - N/A   Overcast
9:54 AM 66.0 °F 60.1 °F 81% 30.17 in 10.0 mi South 5.8 mph - N/A   Overcast
10:54 AM 70.0 °F 60.1 °F 71% 30.17 in 10.0 mi South 4.6 mph - N/A   Overcast
11:08 AM 69.8 °F 59.0 °F 68% 30.19 in 10.0 mi Variable 4.6 mph - N/A   Overcast
11:54 AM 72.0 °F 59.0 °F 64% 30.16 in 10.0 mi South 8.1 mph - N/A   Overcast
12:02 PM 71.6 °F 59.0 °F 64% 30.18 in 10.0 mi South 6.9 mph - N/A   Overcast
12:54 PM 73.9 °F 57.0 °F 55% 30.13 in 10.0 mi South 8.1 mph - N/A   Mostly Cloudy
1:54 PM 73.9 °F 55.0 °F 52% 30.11 in 10.0 mi South 9.2 mph - N/A   Mostly Cloudy
2:54 PM 77.0 °F 52.0 °F 42% 30.10 in 10.0 mi SSE 6.9 mph 19.6 mph N/A   Mostly Cloudy
3:54 PM 77.0 °F 52.0 °F 42% 30.07 in 10.0 mi South 10.4 mph - N/A   Mostly Cloudy
4:54 PM 77.0 °F 53.1 °F 43% 30.05 in 10.0 mi South 4.6 mph - N/A   Overcast
5:54 PM 78.1 °F 53.1 °F 42% 30.02 in 10.0 mi South 8.1 mph 17.3 mph N/A   Partly Cloudy
6:54 PM 75.9 °F 54.0 °F 46% 30.01 in 10.0 mi SSE 9.2 mph - N/A   Mostly Cloudy
7:54 PM 75.0 °F 55.0 °F 50% 30.01 in 10.0 mi SSE 8.1 mph - N/A   Overcast
8:54 PM 73.0 °F 57.0 °F 57% 30.01 in 10.0 mi SSE 6.9 mph - N/A   Mostly Cloudy
9:54 PM 72.0 °F 57.0 °F 59% 30.01 in 10.0 mi SSE 6.9 mph - N/A   Mostly Cloudy
10:54 PM 70.0 °F 55.9 °F 61% 30.01 in 10.0 mi South 10.4 mph 17.3 mph N/A   Scattered Clouds
11:54 PM 68.0 °F 57.0 °F 68% 30.00 in 10.0 mi South 6.9 mph - N/A   Clear